Tracking 17265 objects as of 4-September-2015
HD Live streaming from Space Station

Track Soyuz TMA-18M
and Space Station

MOLNIYA 1-93

Track MOLNIYA 1-93 now!
MOLNIYA 1-93 is classified as:


NORAD ID: 28163
Int'l Code: 2004-005A
Perigee: 194.0 km
Apogee: 40,107.6 km
Inclination: 63.6 °
Period: 716.4 minutes
Semi major axis: 26521 km
RCS: 12.4329 m2 (large)
Launch date: February 18, 2004
Source: Commonwealth of Independent States (former USSR) (CIS)

Military communications.
Your satellite tracking list
Your tracking list is empty





NASA's NSSDC Master Catalog

Two Line Element Set (TLE):
1 28163U 04005A   15245.27253799 +.00000579 +75702-6 +20771-3 0  9998
2 28163 063.5518 007.8698 7524661 243.4390 024.4857 02.01000995084530

Source of the keplerian elements: AFSPC

N2YO: 394